Wind_Speed
26 24 19 19 24 27 30 31 32 32 33 33 34 34 35 35 36 37 38 39 41 42 43 45 48 50 52 54 56 58 60 61 63 64 66 66 66 65 63 62 61 60 59 59 58 57 55 54 54 55 55 54 53 53 53 52 49 46 43 39 36 33 29 25 22 20 20 20 20 22 25 27 28 30 34 37 40 43 49 55 61 69 77 83 89 92
26 23 20 22 25 26 26 28 29 31 32 33 34 34 35 35 36 37 38 39 40 42 43 44 47 49 51 53 55 57 59 61 63 64 65 66 66 66 65 64 63 62 61 60 60 59 58 57 56 56 56 57 56 55 56 57 56 53 50 46 41 37 34 29 24 19 16 14 16 20 23 25 25 27 31 35 39 42 46 52 58 65 72 79 87 91
25 24 25 26 26 25 24 24 26 28 29 31 33 34 35 35 36 37 38 39 40 42 43 45 46 48 50 52 54 56 58 61 62 63 64 65 66 66 66 65 64 64 63 62 62 61 60 59 58 58 58 59 60 60 60 60 60 59 57 54 50 44 39 35 29 24 18 13 10 15 19 22 23 24 27 32 37 41 46 51 56 62 68 74 82 87
25 27 28 29 28 27 25 24 24 25 26 28 31 33 34 36 36 37 37 38 40 41 43 45 46 48 50 52 54 55 57 59 61 62 63 64 65 65 65 65 65 65 65 65 64 63 62 61 61 60 60 60 60 62 63 63 63 63 62 60 57 53 46 40 35 29 24 18 13 11 14 18 21 22 25 28 32 37 42 48 52 58 63 67 74 83
26 27 28 28 29 29 28 27 26 25 26 27 29 32 34 36 36 37 37 38 39 40 42 44 45 47 49 51 52 54 55 57 58 60 61 62 63 64 64 63 64 64 65 65 66 66 65 64 63 62 61 61 61 62 63 64 65 66 66 64 62 59 54 48 41 35 29 23 18 14 13 15 18 20 23 25 28 32 36 41 45 50 55 60 66 75
24 25 25 26 28 29 29 29 28 28 28 28 30 32 34 35 36 37 37 38 39 40 41 43 44 45 47 48 50 51 53 54 56 58 60 61 62 62 63 62 62 62 63 64 65 65 66 66 65 63 62 62 62 61 62 63 64 65 66 66 64 62 59 54 48 42 35 28 22 18 15 14 15 18 20 23 25 30 33 37 41 44 48 54 60 67
23 23 24 25 26 27 27 28 28 29 29 31 32 33 34 36 37 37 37 38 39 40 41 42 43 44 45 46 48 49 50 52 54 56 58 59 60 61 61 61 61 60 61 62 62 64 64 65 65 65 64 63 62 62 61 61 62 63 64 64 64 63 61 58 54 48 42 34 27 21 17 15 14 16 18 20 23 27 31 34 38 41 44 49 55 60
23 23 24 24 25 26 26 27 27 28 30 32 33 35 36 36 37 37 37 38 39 40 42 43 44 45 45 46 47 48 49 51 53 55 56 58 58 59 59 59 59 59 60 60 61 62 62 63 64 64 64 64 63 62 61 60 60 60 61 61 61 62 61 60 57 53 48 41 33 27 21 17 14 14 16 19 22 25 28 32 35 39 41 44 49 55
22 22 23 23 24 24 25 26 28 30 31 32 34 35 35 37 37 37 37 37 38 40 41 43 44 45 46 47 47 48 49 51 52 54 55 56 57 57 57 57 57 57 58 59 60 60 61 62 63 63 63 63 63 63 62 61 59 58 58 58 58 58 59 59 58 55 52 47 40 34 27 21 16 13 13 15 18 23 27 29 32 36 39 42 46 51
21 20 21 21 22 23 25 26 28 29 31 32 34 34 34 36 37 38 38 37 38 39 41 43 44 45 46 47 47 48 49 50 52 53 54 55 55 56 56 56 56 56 57 58 59 59 60 61 62 63 62 62 62 62 62 61 60 58 57 56 55 55 55 55 55 54 53 50 46 40 34 27 21 16 13 12 12 17 23 27 30 33 36 39 42 47
20 20 21 20 21 23 24 26 27 28 30 32 33 34 35 36 36 37 38 38 38 39 41 42 43 44 45 46 47 47 49 50 51 52 52 53 54 55 55 55 56 56 56 57 58 58 58 59 61 62 62 62 61 61 61 60 60 59 57 55 54 53 52 51 50 50 50 49 47 44 39 33 27 22 17 14 11 11 15 21 26 30 33 36 39 43
21 21 21 22 23 24 25 26 26 28 30 31 33 35 35 35 36 37 38 38 39 39 41 42 43 44 44 45 46 47 48 49 50 50 52 52 53 54 54 55 55 55 56 56 57 57 57 58 59 61 62 62 62 61 60 59 59 58 57 56 55 53 51 49 47 46 46 45 44 43 41 38 33 28 24 19 16 13 11 12 17 22 27 32 35 39
22 22 22 23 24 24 25 25 26 27 29 30 31 32 34 35 37 38 38 39 38 39 40 42 44 44 44 45 46 46 47 47 48 49 50 52 53 54 54 54 54 54 54 55 56 56 56 57 58 60 62 62 62 62 60 59 58 57 57 56 55 54 52 50 47 45 43 41 40 39 38 37 35 32 28 24 20 17 14 13 13 15 18 23 28 33
23 23 24 24 24 24 25 26 27 28 29 30 32 33 34 35 36 37 38 39 39 38 39 41 44 45 45 45 45 46 47 47 48 48 49 50 51 53 53 53 53 53 53 54 55 56 56 56 57 59 61 62 62 62 61 60 59 57 57 56 55 54 52 51 48 46 43 40 38 37 35 34 32 31 29 27 24 20 17 15 13 13 15 18 22 26
24 25 25 25 25 26 26 27 27 29 30 32 33 34 35 35 35 36 37 38 39 39 38 40 43 45 46 46 46 46 46 47 48 48 49 49 50 51 52 52 52 52 53 53 54 55 56 56 57 59 60 62 62 63 62 62 60 59 58 56 55 54 52 50 49 47 44 41 38 36 34 32 30 28 27 25 24 22 20 17 15 13 13 15 18 21
24 25 25 26 26 27 27 27 28 30 31 32 34 35 37 38 38 38 38 39 39 40 40 40 42 44 45 46 47 47 46 46 47 48 48 49 49 50 50 50 51 51 52 52 53 54 55 55 56 58 60 61 62 63 63 63 62 61 60 58 57 55 53 51 49 47 45 43 40 37 35 33 30 28 26 24 22 20 19 18 17 16 15 15 16 17
23 24 25 26 26 27 28 29 30 31 33 34 35 37 38 39 39 40 40 40 40 41 42 41 42 44 44 44 46 47 47 47 47 47 47 48 48 50 50 49 50 50 51 52 52 53 54 55 56 57 59 60 62 63 63 63 63 63 62 61 59 57 56 54 51 49 46 44 42 39 37 34 32 30 28 25 23 21 19 17 16 16 16 17 17 18
23 23 24 25 26 27 28 29 31 33 35 36 37 37 38 38 39 39 39 40 40 41 44 44 42 44 45 45 44 45 46 47 47 48 48 47 47 48 50 50 49 49 50 51 51 52 53 54 54 55 57 59 61 63 63 64 64 64 64 63 61 60 58 56 54 51 49 47 45 43 40 37 35 33 30 28 26 23 21 19 18 17 16 16 17 18
22 23 23 24 25 26 28 29 31 34 35 36 37 37 38 37 38 38 38 39 39 40 43 45 44 43 45 47 46 45 45 46 47 48 48 48 47 47 49 50 49 48 49 50 50 50 51 52 53 54 55 58 60 62 63 64 65 65 65 65 64 62 61 59 57 54 52 50 48 46 45 42 40 37 35 32 30 27 25 23 21 20 19 18 18 18
22 22 23 24 25 27 29 30 32 34 36 37 37 38 38 38 38 39 40 40 40 40 42 44 44 43 45 49 48 46 45 46 47 48 48 48 48 48 49 49 49 48 48 49 50 50 50 51 52 53 54 56 59 61 63 64 65 66 66 66 65 64 63 61 59 57 55 53 51 50 49 47 45 43 41 38 35 33 30 27 25 23 22 22 21 21
22 23 24 26 27 28 29 32 33 34 36 37 38 39 39 39 40 41 42 42 42 43 43 44 43 41 44 49 50 48 47 46 47 48 49 49 48 48 48 49 49 48 48 48 49 49 50 50 52 53 54 56 58 60 62 64 65 66 66 66 66 65 64 62 60 59 58 56 55 54 53 51 50 49 47 45 43 40 37 34 31 29 27 26 25 24
22 24 26 28 30 30 32 34 35 35 36 37 38 38 38 40 41 42 42 43 45 46 46 48 45 41 44 49 50 49 48 47 47 48 49 49 48 48 48 49 49 48 48 48 48 48 49 49 51 53 54 56 58 60 62 63 65 66 67 67 66 65 64 63 61 59 59 59 59 57 56 56 55 54 53 51 49 47 44 42 39 36 34 32 30 29
23 25 27 29 31 33 34 35 36 36 36 37 37 38 39 41 42 42 42 43 47 49 49 51 49 45 45 48 49 48 49 49 49 49 50 49 48 46 46 48 49 48 48 48 48 48 48 49 50 52 54 56 58 59 61 62 64 66 67 67 66 65 65 64 62 60 59 60 60 60 59 58 58 58 57 56 55 53 51 49 46 44 41 39 37 35
25 26 28 30 33 35 37 38 38 38 37 36 37 38 40 43 44 44 44 45 48 51 51 52 52 49 47 49 49 49 49 50 50 50 50 50 49 47 45 45 48 49 49 48 48 48 48 48 49 51 53 55 57 59 61 62 64 66 67 67 66 64 64 64 63 61 60 61 61 61 61 60 60 60 60 59 59 57 56 54 53 51 49 46 44 42
25 25 26 28 31 34 37 38 39 39 37 36 37 40 43 46 47 47 45 45 48 52 53 53 53 52 50 50 51 51 51 51 51 50 49 48 49 48 45 44 45 47 48 49 49 49 49 49 49 49 51 53 56 59 62 63 64 65 66 66 65 64 63 63 62 61 60 61 62 62 62 62 60 60 60 59 59 58 58 57 56 55 54 52 50 48
26 26 26 26 29 32 34 35 37 38 37 38 40 43 46 49 49 48 47 47 49 52 54 54 54 53 52 53 54 53 53 53 55 54 49 45 46 47 46 45 45 46 48 49 50 49 49 49 49 50 51 53 56 60 62 64 64 64 64 64 64 64 63 62 62 61 61 61 61 62 62 63 62 60 60 59 59 59 58 57 57 57 56 55 53 52
30 30 30 30 32 34 36 38 40 40 40 41 43 45 47 50 51 50 49 49 50 53 55 55 55 53 52 54 56 56 56 57 58 57 50 44 44 46 46 46 45 46 47 47 48 49 49 49 50 51 52 54 57 60 62 63 64 64 64 63 63 63 63 62 61 61 61 61 62 62 62 62 62 61 61 61 62 61 60 59 59 58 57 56 55 54
32 33 35 36 36 37 39 41 42 42 43 44 45 46 48 50 51 51 51 50 52 54 55 56 56 54 53 54 56 56 59 61 62 58 49 43 44 46 46 46 45 45 45 45 47 48 49 49 50 52 54 56 58 60 61 63 64 64 65 64 63 62 62 61 60 60 60 61 62 63 62 62 62 62 63 63 64 64 63 63 62 61 59 58 56 55
32 34 36 39 39 39 40 42 43 44 45 46 47 47 48 49 51 52 52 52 54 56 57 57 58 57 55 56 57 58 61 64 64 59 50 43 41 43 45 46 44 43 44 46 48 48 49 50 51 53 55 57 59 60 61 62 63 65 65 65 64 63 61 59 58 59 60 62 63 64 64 63 62 62 63 64 65 66 66 66 65 63 62 61 59 58
32 34 36 40 42 41 42 43 43 44 47 49 48 47 48 49 50 51 52 53 56 58 59 58 59 59 59 59 59 61 63 65 64 57 50 44 39 39 41 43 43 44 45 47 49 50 50 51 53 55 57 58 60 61 62 62 63 65 65 65 65 63 60 57 56 57 59 62 64 65 65 64 63 63 63 64 66 68 68 68 68 67 66 64 62 61
33 34 36 38 41 42 43 44 45 45 47 49 48 47 48 49 50 51 53 55 57 59 60 60 60 60 61 62 62 63 64 64 60 53 48 45 40 38 40 42 43 45 47 49 51 52 54 55 56 57 59 60 60 62 63 64 64 64 65 65 64 61 57 56 56 58 60 63 64 65 65 65 66 65 64 65 67 69 70 70 70 69 68 66 65 64
33 35 35 37 40 41 43 45 47 46 46 47 47 47 48 49 51 52 54 56 58 60 61 62 61 60 62 63 64 65 63 61 56 50 46 45 43 41 42 43 45 47 48 50 52 54 57 58 59 61 62 62 63 63 65 66 65 65 64 63 61 57 55 55 57 59 61 64 65 66 66 66 68 67 66 66 68 69 72 73 72 71 69 68 67 66
34 35 36 37 39 41 43 45 46 45 44 45 47 47 48 50 52 53 54 56 58 61 62 63 63 62 62 63 64 65 63 57 52 48 45 44 44 45 46 47 47 48 50 52 54 56 59 61 63 64 65 65 64 64 65 66 66 64 62 60 58 56 55 56 58 61 65 67 68 67 66 66 69 71 70 69 69 71 73 74 74 73 72 71 69 67
34 35 36 38 39 42 44 44 44 44 44 45 46 47 48 50 52 54 55 56 58 61 62 64 64 63 61 60 61 62 60 54 50 47 45 45 46 48 49 50 51 52 53 54 56 57 60 62 65 66 66 65 64 63 63 64 64 62 59 58 57 56 56 60 63 66 68 71 71 69 67 68 72 74 74 73 73 73 74 75 75 75 74 73 72 70
36 36 37 38 39 41 43 43 42 43 44 45 46 47 48 50 52 55 57 57 57 59 60 60 60 60 59 58 57 57 56 54 51 50 49 50 51 52 53 54 55 56 57 57 58 59 60 63 65 66 66 65 63 62 62 62 62 62 61 60 59 59 60 63 67 68 70 73 73 72 71 72 75 78 78 77 76 77 78 79 78 76 75 76 75 72
38 37 38 39 40 40 42 42 41 42 43 45 47 49 50 50 52 54 57 58 57 58 58 57 58 58 57 56 55 55 55 55 54 53 54 55 56 57 58 59 59 60 61 62 62 62 63 64 66 67 66 66 65 64 63 63 63 64 65 65 64 64 64 66 68 70 72 75 76 76 76 76 78 80 81 81 81 81 82 82 81 80 79 79 78 75
40 40 39 40 41 40 40 41 41 42 44 45 47 48 49 50 51 53 55 56 57 58 58 57 58 58 56 55 55 56 57 57 57 57 58 59 61 62 63 63 63 64 65 65 66 66 66 68 69 70 69 69 68 67 67 67 65 65 67 68 68 67 67 68 69 71 73 76 78 80 80 80 81 82 84 84 85 85 86 87 86 85 84 83 81 78
43 43 43 43 43 42 41 41 41 42 43 45 47 49 50 51 53 53 54 55 56 56 55 55 57 57 56 56 57 58 59 59 59 60 60 61 63 64 64 64 65 66 66 67 68 68 70 71 73 73 73 72 72 71 71 70 69 69 70 71 71 70 69 70 72 73 75 77 80 82 84 84 84 85 86 87 88 89 90 91 90 90 89 87 85 82
48 47 47 46 45 44 44 44 44 44 44 46 49 51 52 53 54 54 54 55 54 53 53 55 59 59 57 57 58 59 61 61 60 61 62 62 64 65 65 66 67 68 68 69 70 71 72 74 76 76 76 76 75 75 74 73 72 72 73 73 73 72 71 72 74 76 77 79 81 84 86 87 88 88 89 89 90 91 92 93 93 94 93 92 90 87
51 51 51 50 49 47 46 46 46 47 48 49 51 52 53 55 57 55 54 54 54 54 54 57 62 63 61 61 61 63 64 63 62 63 64 65 66 68 68 68 70 71 72 73 74 74 76 77 79 80 80 79 79 78 77 76 76 75 76 76 76 75 74 75 76 78 79 81 83 86 88 89 90 91 91 91 91 92 94 96 96 97 98 97 95 93
51 52 52 52 51 50 49 49 48 48 50 52 53 54 55 57 57 55 54 55 56 56 56 60 65 67 66 66 66 67 68 69 67 67 68 68 70 71 72 72 73 75 76 77 78 79 80 81 82 83 83 82 82 81 80 79 78 78 78 78 78 77 78 78 79 80 82 84 86 87 89 91 92 93 94 94 94 94 96 99 99 100 102 101 100 97
52 52 53 53 51 50 52 52 49 47 50 53 54 55 57 58 57 56 56 57 59 60 61 63 68 70 69 70 70 70 71 72 71 71 71 72 74 75 76 76 77 78 80 82 83 83 84 85 85 86 85 85 84 83 82 80 80 80 80 81 81 80 80 81 81 83 84 86 88 89 91 93 94 96 96 96 95 95 97 100 102 104 105 106 104 101
56 55 54 54 52 50 52 54 50 47 49 54 55 56 58 59 59 58 58 59 62 65 65 66 69 72 72 72 71 72 73 74 74 74 74 76 78 79 79 80 80 82 84 85 86 86 86 87 87 87 87 87 86 85 83 82 82 82 82 83 83 83 83 83 84 85 87 89 90 92 93 95 96 97 98 97 96 95 97 100 104 106 108 109 107 102
60 60 59 58 55 51 53 54 52 49 51 55 58 59 60 61 61 60 60 61 64 67 68 68 70 73 73 73 73 73 74 75 75 75 76 78 81 83 83 84 85 85 87 88 89 88 88 89 89 89 88 88 87 86 85 84 83 83 84 84 84 84 85 85 86 87 89 91 93 95 96 97 98 99 99 98 97 96 98 102 105 106 108 110 107 101
64 63 63 62 59 55 56 58 57 54 55 57 60 63 65 64 63 62 62 62 65 68 69 69 71 73 75 75 75 74 75 77 77 77 78 80 83 86 87 87 88 89 90 91 92 91 91 91 91 90 90 90 89 88 87 86 85 84 85 85 85 86 87 88 88 89 91 94 95 97 99 100 101 102 101 100 99 99 102 105 107 108 109 109 105 99
66 65 65 65 62 60 61 63 62 59 59 61 63 66 69 70 69 68 67 66 68 69 70 71 72 74 75 76 76 76 77 79 79 79 80 81 85 88 88 88 90 91 93 94 94 94 94 94 94 93 92 91 91 90 89 88 87 87 87 87 88 89 90 91 92 93 95 97 98 100 101 102 103 103 103 102 102 104 106 108 109 110 109 106 101 96
68 66 65 64 64 64 65 66 64 61 62 65 67 68 71 73 74 74 73 73 73 73 73 74 74 75 77 78 79 78 79 80 82 82 82 84 87 89 90 90 91 93 95 96 96 96 96 96 95 94 94 93 92 91 90 90 90 90 89 90 91 93 94 95 95 97 98 100 101 102 104 104 104 104 104 104 105 106 108 110 110 109 105 101 96 91
69 66 65 64 66 68 68 68 65 62 64 68 70 69 71 73 75 76 77 78 78 77 77 77 78 78 80 81 81 81 81 82 84 85 85 87 90 91 92 93 93 95 97 98 99 99 99 99 97 96 95 95 94 93 92 92 92 92 92 93 95 96 96 97 98 99 101 102 104 105 106 106 105 104 104 105 106 108 108 108 106 102 99 95 90 85
70 67 65 65 67 70 71 69 65 61 64 70 72 71 72 74 76 77 80 82 82 81 81 81 81 82 83 84 85 85 84 84 86 88 89 91 93 93 94 95 96 98 100 101 102 103 103 102 100 98 97 96 95 94 93 94 94 95 96 96 97 98 98 98 100 101 103 105 107 108 108 107 106 105 105 105 105 105 104 102 99 96 93 90 86 81
72 67 64 65 68 71 72 71 64 59 62 70 73 73 75 78 79 79 82 84 85 85 85 85 85 85 87 88 89 88 87 87 88 91 92 93 94 95 97 98 99 100 102 103 105 106 106 105 103 100 98 98 96 95 95 96 97 98 98 99 99 99 99 100 101 103 106 108 109 109 109 107 106 105 104 102 101 99 97 95 93 91 88 85 82 79
74 68 66 68 69 71 73 72 65 60 62 68 72 74 77 79 79 79 82 84 85 86 87 87 87 88 89 90 91 91 91 90 91 93 95 95 96 97 99 100 101 103 104 106 108 108 107 106 104 101 99 98 97 97 97 97 98 99 99 100 100 100 101 102 104 105 107 109 109 109 107 106 104 102 100 98 96 94 92 91 89 86 82 80 78 76
Wind_Direction
67 65 66 67 65 62 59 56 54 51 47 45 43 42 42 41 39 38 37 36 34 32 31 29 29 30 29 29 28 28 28 28 28 28 28 28 29 30 30 30 29 28 27 27 26 26 25 25 25 26 26 25 25 24 22 18 16 14 12 7 2 357 351 343 335 318 300 287 273 261 254 250 244 238 237 238 237 234 232 231 231 231 231 229 228 227
62 60 60 58 56 54 53 51 49 47 44 42 40 39 38 37 37 36 34 32 31 30 28 27 27 27 27 27 26 26 26 26 26 26 26 27 28 28 29 29 29 28 27 27 27 27 26 25 25 25 26 26 25 25 25 23 21 19 19 17 14 11 7 1 354 342 325 306 280 262 255 251 246 238 235 236 236 235 232 231 230 230 231 229 228 228
58 56 54 52 51 50 48 45 44 42 39 38 37 36 35 35 34 33 32 30 29 27 26 25 25 25 25 24 24 24 24 24 24 24 24 25 26 27 28 28 28 27 27 27 26 26 26 26 26 25 25 25 25 25 25 25 24 23 23 22 21 19 17 13 8 3 358 348 307 271 260 256 252 245 239 236 235 234 232 231 229 229 230 230 229 229
55 52 51 49 48 48 46 43 41 38 34 33 33 33 33 32 32 32 31 29 28 26 25 24 23 23 23 23 22 22 22 22 22 22 22 23 24 25 26 26 26 26 26 26 25 25 25 25 25 26 26 26 25 25 25 26 26 25 25 26 25 24 23 21 18 14 12 9 352 309 278 266 260 255 248 243 240 238 235 233 231 230 231 231 230 229
52 50 48 47 46 45 44 42 40 37 33 30 30 30 30 30 30 30 29 28 27 25 24 23 23 22 21 21 20 20 20 19 19 20 20 21 22 23 24 25 25 24 24 24 24 24 24 24 24 25 26 27 26 26 25 25 26 26 26 26 27 27 27 26 25 23 20 17 9 349 316 286 270 263 258 254 251 249 246 243 240 237 235 235 234 232
49 47 45 44 44 43 43 41 39 37 33 31 30 29 28 27 27 27 27 26 25 24 23 22 22 21 20 20 19 18 18 17 17 17 18 19 20 22 23 23 23 23 23 23 24 24 24 23 23 23 24 26 27 27 26 26 26 26 26 26 27 28 29 29 29 29 26 23 18 9 350 319 291 278 271 265 261 257 255 253 250 247 242 239 237 236
46 44 43 42 41 40 40 39 37 35 33 31 30 29 27 25 25 25 24 23 22 22 22 21 20 19 19 19 18 17 16 16 15 15 16 17 18 20 21 21 22 22 22 23 23 23 24 24 23 23 23 24 26 27 27 27 27 27 27 27 26 27 28 30 31 32 31 29 25 21 12 352 322 301 287 278 271 265 262 260 258 256 252 247 243 241
41 39 36 35 35 34 34 34 34 33 32 30 28 27 26 24 23 22 22 21 21 20 20 19 19 18 17 16 16 16 15 14 14 14 14 15 16 17 19 20 20 21 21 21 21 22 23 24 23 23 23 23 24 25 26 28 28 28 28 28 28 27 27 28 30 32 33 33 31 27 22 13 354 327 308 293 282 275 270 267 266 263 262 257 251 248
39 36 33 30 29 29 30 30 30 30 30 29 27 26 24 23 22 21 20 20 19 19 18 18 17 17 15 14 13 13 13 13 13 13 13 13 13 14 16 17 18 19 19 19 20 21 22 23 23 23 23 23 23 24 25 26 27 28 29 29 29 29 29 28 28 29 31 33 35 33 28 21 11 354 331 311 294 285 280 275 272 270 268 266 261 256
37 35 32 28 25 25 26 27 27 27 26 26 26 25 23 22 20 19 18 18 18 18 17 17 16 15 14 13 11 10 10 10 11 11 10 10 11 11 13 14 15 17 18 18 18 18 19 21 22 23 23 24 24 24 24 24 25 27 28 30 30 31 31 31 30 29 29 29 31 34 34 30 22 10 354 335 310 292 286 282 278 275 272 269 266 262
36 33 30 27 24 23 23 24 25 25 25 24 23 22 21 21 19 18 15 14 15 15 15 15 14 13 12 11 10 9 8 7 7 8 8 8 8 9 10 11 13 14 15 16 16 17 17 18 20 21 22 23 24 24 24 24 24 25 26 28 29 31 32 32 33 33 31 29 28 28 30 32 31 25 12 357 339 310 290 283 280 279 277 274 271 267
38 34 30 27 25 23 22 22 22 23 23 23 21 19 17 16 16 17 16 14 12 12 12 12 12 11 10 9 9 8 6 5 4 4 5 5 6 7 8 8 9 11 12 13 14 15 15 16 17 19 20 21 22 23 24 24 24 24 25 25 26 28 30 32 33 34 34 33 31 28 26 26 27 28 26 18 5 348 322 295 281 275 273 272 271 269
36 35 33 29 25 23 22 22 21 22 22 22 21 19 16 14 12 12 13 14 12 10 9 9 9 9 8 7 5 5 4 4 2 1 1 2 3 4 5 6 7 8 9 10 11 12 13 14 15 16 18 19 20 21 21 22 23 23 24 24 24 25 26 28 30 32 33 34 34 33 30 26 24 22 23 23 20 12 358 339 316 294 279 270 266 264
30 31 30 27 24 22 21 20 20 19 19 19 18 17 17 15 12 10 8 10 11 10 7 6 6 6 5 5 3 2 1 1 0 360 359 359 359 360 1 3 4 5 5 6 8 9 11 12 13 14 15 16 17 18 18 19 20 21 22 22 23 24 24 25 26 27 29 31 33 33 32 30 27 23 20 17 16 14 10 1 346 326 307 292 280 271
26 25 24 22 20 17 17 16 16 16 16 15 14 13 13 12 12 11 8 6 7 9 7 4 4 4 2 2 2 1 359 358 357 357 357 356 356 356 357 358 360 1 2 3 5 7 8 9 9 10 11 12 13 14 15 15 16 17 18 19 20 20 21 22 23 23 24 25 27 29 30 30 29 26 22 18 14 10 6 0 352 340 323 307 295 286
22 20 19 18 15 13 12 12 12 13 13 12 12 10 9 8 7 8 8 5 4 6 7 3 0 2 1 359 359 359 358 356 355 354 354 353 353 354 354 354 355 357 358 360 2 4 5 6 7 7 8 9 9 10 11 12 12 13 13 14 15 16 16 17 19 20 20 21 22 23 24 25 25 24 21 18 15 10 5 359 351 342 332 318 306 294
20 19 16 14 12 9 8 7 8 9 9 10 10 8 7 5 5 5 5 4 2 1 4 3 358 358 0 359 356 356 356 355 353 352 351 350 350 350 352 352 353 354 355 357 358 0 2 3 4 4 4 5 6 6 7 8 8 9 10 10 10 11 12 12 13 15 16 17 17 18 19 19 19 18 17 14 11 8 3 357 351 343 334 325 316 307
15 16 14 12 11 8 6 5 5 6 7 8 9 8 7 5 4 4 4 4 1 358 1 3 358 353 356 358 356 354 353 352 352 350 349 348 347 347 349 351 351 352 353 355 356 357 359 360 1 1 1 1 2 2 3 4 4 5 6 6 6 7 8 8 8 9 11 11 12 13 13 14 14 13 12 10 7 4 359 354 348 341 334 327 319 311
10 11 10 9 9 8 7 5 4 5 8 9 10 8 7 5 4 4 5 4 3 358 358 1 358 352 352 354 354 352 350 350 350 349 347 346 346 345 345 348 350 350 351 352 354 354 355 356 357 358 359 359 359 359 359 360 1 1 2 2 3 3 4 4 5 5 6 7 8 8 8 8 9 8 7 6 3 360 356 351 346 340 333 327 320 314
4 4 4 5 7 9 9 8 7 7 8 9 8 6 4 4 3 3 4 4 4 2 360 2 359 351 349 351 351 350 349 348 348 348 346 344 344 343 343 345 347 349 349 350 351 352 353 353 354 355 356 356 356 356 356 356 357 358 359 359 360 360 1 1 2 2 3 4 4 4 3 3 3 3 3 2 0 358 355 350 345 340 334 328 322 317
1 359 0 4 8 11 11 10 8 7 6 5 4 3 4 4 3 2 1 3 4 3 1 3 2 352 348 350 350 348 347 346 347 348 347 344 343 342 341 342 344 347 347 347 348 349 350 351 352 352 353 354 353 353 354 354 354 355 356 356 357 357 358 358 359 360 360 1 1 1 0 360 359 359 359 358 357 356 354 352 348 343 337 332 326 320
5 2 360 2 6 9 9 9 8 6 5 4 2 3 5 5 3 1 359 360 2 2 0 2 3 356 350 352 351 347 345 344 345 347 347 344 342 341 339 338 340 343 345 345 345 346 348 349 350 350 351 351 351 351 351 351 351 352 353 353 354 355 355 355 356 357 357 357 358 358 358 357 356 356 355 355 354 353 353 351 350 347 343 338 332 326
7 5 2 360 2 4 5 7 8 7 6 4 3 3 4 4 2 360 358 357 359 1 359 358 0 358 353 355 355 350 347 345 343 344 345 343 340 340 339 336 336 339 341 342 343 343 345 346 347 348 348 348 348 348 348 349 349 350 350 351 352 353 353 353 353 354 355 355 355 355 355 356 355 354 353 353 352 352 351 350 349 347 345 343 338 333
1 2 2 359 358 359 1 3 5 6 6 5 2 0 360 1 1 359 357 355 355 357 356 355 356 357 354 355 356 354 352 351 347 344 342 340 338 339 341 338 335 336 337 339 340 340 341 343 344 344 344 344 345 345 346 347 348 348 348 348 350 351 351 350 350 351 352 352 352 352 353 354 354 353 353 352 351 350 349 348 347 346 345 343 341 338
355 357 2 1 357 357 359 359 359 2 4 3 360 357 356 358 359 358 356 354 353 353 353 352 352 353 353 354 354 354 353 355 353 348 343 339 335 335 340 341 337 334 335 337 339 339 340 340 340 341 341 342 344 344 344 345 346 346 346 346 347 348 348 348 347 348 349 350 350 350 350 351 352 352 352 351 350 349 348 347 345 343 342 341 340 338
353 354 358 1 359 357 359 357 354 356 0 1 359 356 353 353 355 356 354 352 352 350 350 349 350 350 350 351 352 352 352 353 354 351 345 339 334 333 338 342 338 335 335 337 339 340 340 340 339 339 340 341 343 343 342 342 343 344 344 345 345 345 345 345 345 345 345 346 347 348 349 349 350 350 350 349 349 349 348 347 345 342 340 339 337 336
350 350 351 355 358 357 357 356 353 353 357 0 358 354 351 351 351 352 352 351 350 349 347 347 348 349 348 348 350 350 350 351 352 351 347 339 334 333 337 341 340 338 339 341 342 342 341 340 339 339 339 341 341 341 341 341 341 341 342 343 343 343 343 343 342 342 343 343 345 346 347 348 347 347 348 347 347 348 348 347 345 343 340 337 336 334
348 348 347 349 355 356 355 354 351 350 354 358 357 353 350 349 349 349 350 349 348 347 346 345 346 348 347 346 347 348 349 349 349 350 348 340 335 333 336 341 342 341 342 343 344 343 342 340 339 339 339 340 340 339 339 339 339 339 340 340 340 340 340 341 340 340 340 341 342 344 346 346 346 347 347 347 347 347 347 347 345 343 340 338 336 333
348 348 346 347 351 355 353 351 350 349 352 356 355 351 349 349 348 348 348 347 345 345 345 345 345 345 345 344 345 346 347 347 347 348 348 343 338 336 337 340 342 343 343 343 342 342 341 340 339 339 338 338 338 337 338 338 337 337 337 337 337 338 339 339 339 339 339 340 341 343 344 345 345 346 347 347 346 347 347 347 345 343 341 339 336 334
349 349 349 346 348 352 351 349 349 348 349 352 351 348 348 348 347 347 346 345 344 343 344 345 345 344 343 343 343 344 345 345 346 347 347 345 343 341 340 340 341 341 341 340 340 340 339 339 339 338 338 337 336 336 336 335 335 335 334 334 334 335 337 338 338 338 339 339 340 342 343 343 344 345 346 346 346 346 346 346 346 345 343 340 337 335
348 349 350 347 346 348 348 346 346 347 348 349 347 346 346 346 345 345 345 344 343 343 343 345 345 343 342 341 341 341 342 342 344 346 345 345 345 343 342 341 340 340 339 339 339 338 338 339 338 337 337 336 335 335 333 332 332 332 332 331 332 333 336 338 338 338 339 339 340 341 342 343 344 344 345 346 346 346 345 346 346 345 344 341 338 336
347 347 348 346 344 345 346 345 343 344 347 347 345 345 345 343 342 342 343 343 343 342 343 343 343 342 341 340 338 338 339 341 343 344 343 343 343 343 343 343 342 341 340 339 338 338 337 337 337 337 336 336 334 333 332 331 330 330 329 329 330 333 335 337 337 338 338 338 339 340 341 343 344 343 344 345 345 345 345 345 344 344 344 341 339 337
343 343 343 344 343 343 344 343 339 340 345 345 343 343 342 340 339 339 341 342 342 342 343 343 342 341 339 338 336 336 337 340 342 342 341 340 340 340 341 343 344 344 343 341 340 338 337 336 336 337 337 336 334 332 331 329 328 328 327 328 330 332 333 335 336 337 339 339 338 339 340 342 343 343 344 344 344 344 344 343 343 343 343 341 339 337
338 338 339 340 341 342 341 339 336 337 341 341 340 339 338 338 338 337 338 342 343 343 343 341 339 339 338 338 337 336 337 339 341 339 337 336 337 338 339 342 344 345 345 343 341 338 337 336 336 337 337 336 335 334 332 330 329 329 330 331 332 332 334 336 337 338 339 338 337 338 339 341 343 343 343 343 343 343 342 342 342 342 342 341 339 337
333 334 336 336 337 336 335 334 333 333 335 337 337 337 336 336 337 336 336 340 343 343 342 341 342 342 339 339 340 339 338 339 340 339 337 336 338 339 341 342 344 344 344 343 341 338 337 336 336 336 336 335 336 337 336 334 333 333 334 334 335 335 337 338 338 337 337 336 337 338 339 341 342 342 342 342 342 342 342 341 340 340 341 341 339 337
328 328 330 330 330 330 330 331 329 330 332 334 333 335 335 336 337 336 335 338 341 343 344 345 348 345 340 340 343 343 340 340 342 342 340 339 341 342 343 343 343 342 342 341 340 338 336 336 335 335 335 336 338 339 338 337 335 334 335 336 337 337 338 339 337 337 336 336 337 338 340 341 342 342 341 341 341 341 340 340 339 340 340 340 338 336
322 322 323 324 324 325 325 326 327 328 331 333 334 335 335 334 335 335 335 337 339 342 342 345 348 348 344 343 346 347 345 343 344 345 343 342 343 344 343 342 342 341 340 340 339 337 336 335 335 335 336 337 338 340 339 338 336 335 335 337 337 338 338 338 336 336 336 335 336 337 338 340 341 341 340 340 340 340 339 339 339 339 339 338 337 336
319 318 319 319 319 319 319 320 322 325 328 331 332 332 331 330 332 336 337 336 336 337 339 343 348 349 346 344 345 348 348 345 343 345 345 344 344 344 343 341 340 340 340 339 338 337 335 334 335 336 337 338 339 340 339 338 336 336 336 337 337 338 338 336 335 336 336 335 334 336 337 338 339 340 340 339 339 338 338 338 338 337 337 337 337 336
319 318 317 316 316 316 316 316 318 321 327 329 328 327 328 329 332 336 337 335 335 337 339 343 348 349 348 346 344 346 349 347 343 343 345 344 343 343 342 340 339 339 339 339 339 337 335 334 335 336 337 339 339 339 338 338 337 336 337 337 337 337 337 335 335 336 335 334 334 335 336 337 338 338 338 337 337 337 336 336 336 337 336 336 336 335
319 317 315 315 316 316 315 316 316 320 326 326 324 325 327 327 329 334 335 335 337 339 338 341 346 349 348 347 345 345 347 348 345 343 344 343 342 341 341 340 339 339 339 339 338 337 335 335 335 336 337 338 339 338 338 337 336 336 336 336 337 337 336 336 335 334 333 333 334 334 335 336 336 336 335 335 336 335 335 335 335 336 335 335 335 334
320 318 316 315 316 315 314 313 316 320 323 322 322 324 325 324 327 331 332 334 338 340 338 340 345 347 347 347 346 345 345 346 345 343 343 342 341 340 339 339 339 339 339 338 338 337 336 336 336 336 336 337 337 338 337 336 335 335 335 336 336 337 336 335 334 333 333 333 333 334 334 334 334 334 334 334 334 334 333 333 334 334 334 334 334 333
319 320 319 315 314 314 311 310 313 319 320 318 319 323 324 323 326 330 330 333 338 340 339 339 342 346 347 346 345 345 344 344 343 342 341 340 340 340 339 338 338 338 338 338 338 338 337 336 335 335 335 336 336 337 336 335 334 334 334 335 336 336 335 334 333 333 333 333 333 333 333 333 333 333 333 333 333 332 331 331 332 332 332 332 331 330
313 318 321 318 315 311 308 307 310 316 317 315 315 321 323 323 326 330 331 333 337 339 340 340 340 343 345 344 343 343 343 343 342 340 339 339 339 339 338 338 338 338 338 338 338 337 336 335 334 334 334 334 335 335 334 334 333 333 333 334 334 334 334 333 333 333 332 332 332 332 332 332 332 331 331 332 332 331 329 329 329 329 329 328 328 328
308 312 317 319 317 311 307 307 310 314 315 312 313 320 324 325 327 331 332 333 335 337 339 340 339 340 342 343 342 341 341 341 341 340 338 337 338 339 339 338 338 337 337 337 337 336 335 334 333 333 333 333 334 334 333 332 332 332 332 332 332 332 333 333 332 332 331 331 331 332 332 331 331 330 330 330 330 329 327 326 327 326 325 325 325 325
306 308 311 315 317 315 311 310 311 314 314 310 311 318 323 325 328 332 332 332 333 335 337 339 338 338 339 340 340 340 339 340 340 339 337 337 337 339 339 338 337 337 337 337 337 335 334 333 333 333 332 332 333 333 332 331 331 331 330 331 331 331 332 332 332 332 331 331 331 331 331 330 330 329 329 329 328 327 325 324 324 323 322 322 323 323
304 306 307 310 314 315 315 315 315 314 312 309 311 316 319 322 328 332 332 332 332 333 335 336 336 337 337 337 339 338 337 338 339 338 337 336 336 338 338 337 336 336 336 336 336 335 334 333 332 332 332 332 333 333 331 330 329 329 329 330 330 331 332 332 332 332 331 330 330 330 329 329 328 328 328 327 326 324 323 322 321 320 320 320 321 322
301 302 304 307 310 311 313 316 316 314 311 310 311 314 316 319 325 329 330 330 330 331 333 334 334 335 335 336 337 337 336 336 338 337 336 335 336 337 337 336 336 335 335 335 335 334 334 333 332 332 331 332 332 332 330 328 328 328 329 330 331 332 332 332 331 331 330 329 329 328 328 327 327 327 326 324 322 321 319 318 317 317 317 319 320 320
299 300 301 304 306 308 311 314 315 313 311 310 310 313 315 319 322 325 327 328 330 331 332 332 332 333 334 334 335 336 336 335 336 336 335 334 335 336 336 336 335 334 334 335 335 334 334 333 332 331 331 331 331 331 329 328 327 328 330 331 331 331 331 331 330 330 329 328 327 327 326 326 326 324 322 320 318 317 315 314 314 315 317 317 318 318
299 300 301 302 305 307 310 312 313 313 311 310 310 314 317 319 320 322 324 326 329 330 330 331 330 330 332 333 334 335 335 334 334 334 334 333 333 334 335 335 334 334 334 334 334 334 334 333 332 331 330 330 331 330 328 327 327 328 330 331 330 330 330 329 329 328 327 326 326 325 325 324 323 321 319 316 314 313 312 312 314 316 316 316 316 317
300 302 303 303 305 308 309 310 313 313 312 310 312 316 318 318 319 320 321 323 326 328 329 329 329 328 330 331 332 333 334 333 333 333 333 332 332 333 333 333 333 333 333 333 334 334 334 333 332 331 330 329 329 329 328 328 327 328 329 329 328 328 328 328 328 327 326 325 324 323 322 321 319 317 315 313 312 312 312 313 315 315 316 316 316 316
301 304 304 304 306 307 307 309 313 315 313 312 314 316 316 316 318 318 318 319 323 326 326 327 326 326 328 329 330 331 332 332 331 332 332 331 330 331 332 332 332 332 332 333 333 334 334 332 331 330 328 328 328 328 328 327 326 326 327 327 326 327 327 326 326 325 324 323 322 320 319 318 316 314 312 312 312 313 314 314 315 315 316 316 315 315
Height
10778 10778 10779 10776 10771 10766 10763 10762 10761 10759 10757 10756 10753 10750 10747 10744 10741 10738 10735 10732 10729 10725 10721 10718 10713 10709 10704 10700 10696 10691 10686 10681 10675 10670 10665 10659 10653 10648 10642 10636 10631 10625 10619 10613 10607 10601 10595 10589 10584 10577 10571 10564 10558 10550 10543 10535 10528 10521 10514 10507 10501 10496 10492 10488 10486 10484 10483 10483 10485 10487 10488 10489 10492 10496 10501 10505 10511 10517 10523 10528 10533 10537 10541 10548 10551 10554
10779 10780 10778 10773 10769 10767 10765 10764 10762 10760 10758 10757 10754 10751 10748 10745 10741 10738 10734 10731 10728 10725 10721 10718 10713 10709 10705 10700 10696 10691 10686 10681 10675 10670 10666 10660 10655 10649 10643 10637 10632 10627 10621 10616 10609 10603 10597 10591 10585 10579 10572 10566 10559 10552 10543 10535 10527 10520 10514 10507 10501 10495 10491 10487 10485 10483 10482 10483 10484 10484 10485 10487 10490 10493 10497 10502 10507 10512 10517 10522 10526 10529 10535 10541 10544 10547
10781 10780 10776 10772 10770 10768 10766 10765 10763 10761 10759 10757 10755 10752 10749 10745 10742 10738 10735 10732 10728 10724 10721 10717 10713 10709 10704 10700 10695 10691 10686 10681 10675 10671 10667 10661 10656 10650 10644 10639 10634 10628 10623 10617 10611 10605 10600 10594 10587 10580 10574 10567 10560 10553 10545 10537 10529 10522 10515 10508 10502 10496 10492 10488 10485 10482 10481 10482 10483 10483 10485 10487 10489 10492 10495 10499 10502 10507 10512 10516 10519 10523 10528 10533 10537 10542
10781 10778 10775 10773 10771 10769 10767 10765 10763 10761 10760 10758 10756 10753 10750 10746 10742 10739 10736 10732 10729 10725 10721 10717 10712 10708 10704 10699 10695 10690 10685 10681 10676 10672 10668 10662 10657 10651 10645 10640 10635 10629 10624 10619 10613 10607 10601 10595 10589 10583 10576 10569 10562 10555 10548 10540 10532 10524 10517 10511 10505 10499 10494 10490 10487 10484 10482 10482 10482 10484 10486 10488 10490 10493 10495 10498 10500 10504 10507 10511 10514 10518 10522 10526 10532 10537
10780 10778 10776 10774 10772 10770 10768 10766 10764 10762 10761 10759 10756 10753 10750 10746 10743 10740 10736 10733 10729 10726 10722 10717 10713 10708 10704 10699 10695 10690 10686 10682 10678 10674 10669 10664 10658 10653 10647 10642 10636 10631 10626 10620 10614 10608 10602 10597 10591 10585 10578 10572 10565 10558 10551 10544 10536 10528 10521 10515 10509 10504 10499 10494 10490 10487 10485 10483 10483 10485 10487 10490 10492 10493 10495 10498 10501 10504 10507 10510 10513 10515 10519 10523 10528 10532
10781 10779 10777 10775 10772 10770 10768 10767 10765 10763 10761 10759 10756 10753 10749 10746 10743 10740 10736 10733 10730 10726 10723 10718 10714 10710 10705 10700 10696 10692 10688 10683 10679 10674 10670 10664 10659 10654 10648 10643 10638 10633 10628 10622 10616 10610 10604 10599 10593 10587 10581 10574 10568 10562 10555 10548 10541 10534 10527 10520 10515 10510 10505 10500 10495 10492 10489 10487 10486 10487 10489 10492 10494 10495 10496 10499 10502 10505 10507 10510 10513 10515 10519 10522 10525 10528
10782 10780 10778 10775 10773 10771 10769 10767 10765 10764 10762 10759 10756 10752 10749 10746 10743 10739 10736 10733 10730 10726 10722 10718 10714 10710 10706 10702 10697 10693 10689 10684 10680 10675 10670 10665 10660 10654 10649 10645 10640 10635 10630 10624 10619 10613 10607 10601 10595 10589 10583 10577 10571 10565 10559 10553 10546 10540 10534 10527 10521 10515 10511 10506 10502 10498 10495 10493 10491 10490 10491 10493 10495 10497 10498 10500 10502 10505 10508 10510 10513 10515 10518 10521 10523 10525
10782 10780 10778 10776 10774 10772 10770 10768 10766 10764 10761 10758 10755 10752 10749 10746 10743 10739 10736 10733 10729 10725 10721 10717 10713 10709 10705 10701 10697 10693 10689 10685 10680 10675 10670 10665 10661 10656 10651 10647 10642 10637 10631 10626 10621 10615 10610 10604 10598 10592 10586 10580 10574 10568 10563 10557 10551 10546 10540 10534 10528 10522 10516 10512 10508 10505 10502 10499 10496 10494 10494 10495 10496 10498 10500 10502 10503 10505 10507 10510 10512 10514 10516 10519 10521 10523
10782 10780 10778 10776 10775 10773 10771 10768 10766 10763 10760 10757 10754 10751 10748 10745 10742 10739 10736 10733 10729 10725 10721 10717 10713 10709 10705 10700 10696 10692 10689 10684 10680 10675 10670 10666 10661 10657 10653 10649 10644 10638 10633 10628 10622 10617 10612 10606 10601 10595 10589 10583 10577 10571 10566 10561 10556 10551 10545 10540 10535 10529 10523 10518 10514 10511 10508 10505 10503 10500 10498 10497 10498 10499 10500 10502 10504 10505 10507 10509 10511 10513 10515 10517 10519 10520
10783 10781 10779 10777 10775 10773 10770 10768 10765 10762 10759 10757 10754 10751 10748 10745 10742 10738 10735 10732 10729 10725 10721 10717 10713 10709 10705 10701 10696 10692 10688 10684 10680 10675 10671 10667 10662 10658 10654 10649 10644 10639 10634 10629 10624 10619 10614 10608 10603 10597 10592 10586 10580 10575 10569 10564 10560 10555 10550 10545 10540 10536 10531 10526 10521 10517 10513 10510 10508 10506 10505 10503 10501 10501 10501 10502 10504 10505 10506 10507 10509 10511 10513 10515 10516 10518
10783 10781 10779 10777 10775 10772 10770 10767 10765 10762 10759 10757 10754 10751 10748 10745 10742 10739 10735 10732 10728 10725 10721 10717 10713 10709 10705 10702 10697 10693 10689 10684 10680 10676 10672 10668 10663 10659 10654 10649 10644 10639 10635 10630 10626 10621 10616 10610 10605 10600 10594 10589 10584 10578 10573 10568 10563 10559 10554 10550 10546 10541 10537 10533 10528 10524 10520 10516 10513 10511 10509 10508 10506 10504 10503 10503 10503 10505 10506 10506 10507 10508 10509 10510 10512 10514
10783 10781 10779 10776 10774 10771 10769 10767 10764 10762 10759 10756 10753 10750 10747 10745 10742 10739 10736 10732 10728 10724 10721 10717 10714 10710 10706 10702 10698 10694 10690 10685 10680 10676 10672 10667 10663 10658 10653 10649 10644 10640 10635 10631 10627 10622 10617 10612 10606 10601 10596 10591 10586 10581 10576 10572 10567 10562 10558 10554 10550 10546 10542 10538 10534 10531 10527 10524 10520 10516 10514 10511 10510 10508 10506 10505 10504 10504 10504 10504 10505 10506 10506 10507 10507 10508
10783 10781 10779 10776 10774 10771 10769 10767 10764 10762 10759 10757 10754 10751 10748 10745 10741 10738 10735 10732 10728 10725 10721 10717 10714 10710 10707 10702 10698 10694 10690 10686 10681 10676 10671 10667 10662 10658 10653 10649 10644 10640 10636 10631 10627 10623 10618 10613 10607 10602 10597 10592 10587 10583 10579 10574 10570 10566 10561 10557 10553 10549 10545 10542 10539 10535 10532 10529 10526 10523 10520 10516 10513 10511 10509 10507 10506 10504 10503 10502 10502 10502 10502 10502 10503 10503
10783 10780 10778 10776 10773 10771 10769 10767 10764 10762 10759 10756 10754 10751 10748 10745 10741 10738 10734 10731 10729 10726 10722 10718 10714 10710 10706 10703 10699 10694 10690 10685 10681 10677 10672 10667 10662 10658 10653 10649 10645 10641 10637 10633 10628 10623 10618 10613 10608 10603 10598 10593 10589 10584 10580 10576 10572 10568 10564 10560 10556 10552 10548 10545 10542 10539 10536 10533 10530 10527 10525 10522 10519 10515 10512 10510 10508 10506 10504 10502 10501 10499 10498 10497 10497 10497
10781 10779 10777 10775 10773 10771 10768 10766 10764 10761 10758 10755 10753 10750 10747 10745 10742 10739 10735 10732 10729 10726 10722 10718 10714 10710 10706 10702 10698 10694 10689 10685 10681 10677 10672 10667 10663 10658 10654 10650 10646 10642 10638 10634 10629 10623 10618 10613 10608 10603 10598 10594 10590 10585 10581 10577 10573 10569 10565 10562 10558 10554 10551 10547 10544 10541 10538 10535 10532 10529 10527 10525 10522 10520 10516 10513 10510 10507 10505 10503 10501 10499 10497 10495 10494 10492
10781 10779 10777 10774 10772 10770 10768 10766 10763 10761 10758 10756 10753 10750 10747 10744 10741 10738 10735 10731 10728 10725 10722 10717 10714 10711 10706 10701 10697 10693 10689 10685 10681 10676 10672 10667 10663 10659 10654 10650 10647 10643 10639 10634 10629 10623 10618 10612 10608 10603 10599 10595 10590 10586 10582 10578 10574 10570 10566 10562 10559 10555 10552 10548 10545 10542 10539 10536 10533 10530 10528 10525 10523 10521 10519 10516 10513 10510 10506 10503 10501 10498 10496 10494 10492 10490
10781 10779 10777 10774 10772 10770 10767 10765 10763 10761 10758 10756 10753 10750 10747 10744 10741 10738 10734 10730 10727 10723 10721 10717 10712 10709 10706 10702 10697 10693 10689 10685 10681 10676 10672 10667 10663 10659 10655 10650 10646 10643 10638 10634 10629 10623 10618 10613 10608 10603 10599 10595 10591 10587 10583 10579 10575 10571 10566 10563 10559 10555 10552 10549 10545 10542 10539 10537 10534 10531 10528 10525 10523 10520 10518 10516 10513 10511 10508 10504 10501 10498 10495 10492 10490 10487
10781 10779 10777 10775 10773 10770 10767 10765 10763 10761 10758 10756 10753 10750 10747 10744 10741 10738 10735 10731 10727 10722 10719 10717 10712 10707 10705 10702 10697 10693 10688 10684 10681 10676 10672 10668 10663 10659 10655 10651 10646 10642 10637 10633 10628 10623 10618 10613 10608 10604 10599 10595 10591 10587 10583 10579 10575 10571 10567 10563 10559 10555 10552 10548 10545 10541 10538 10535 10533 10530 10527 10525 10522 10519 10517 10514 10511 10509 10506 10503 10500 10497 10494 10491 10488 10485
10780 10779 10777 10775 10773 10771 10768 10766 10763 10761 10759 10756 10754 10751 10748 10744 10741 10738 10735 10732 10728 10723 10718 10715 10711 10706 10702 10699 10696 10692 10688 10684 10680 10676 10671 10667 10663 10659 10654 10651 10646 10642 10637 10632 10628 10623 10619 10614 10610 10605 10600 10595 10590 10586 10582 10578 10574 10571 10567 10562 10558 10554 10551 10547 10543 10540 10537 10534 10531 10528 10525 10522 10520 10517 10514 10512 10509 10506 10503 10501 10498 10495 10492 10489 10486 10482
10780 10779 10777 10775 10774 10772 10769 10767 10764 10761 10758 10756 10753 10750 10747 10744 10740 10737 10734 10732 10728 10724 10720 10716 10711 10706 10701 10697 10694 10690 10687 10683 10679 10675 10670 10666 10662 10658 10653 10649 10645 10641 10637 10632 10627 10623 10618 10614 10609 10605 10600 10596 10591 10587 10582 10578 10573 10570 10566 10562 10558 10553 10549 10546 10542 10538 10535 10532 10529 10525 10522 10519 10516 10514 10511 10508 10505 10503 10500 10497 10494 10491 10488 10485 10482 10479
10780 10778 10776 10775 10773 10772 10770 10767 10764 10761 10758 10755 10752 10749 10746 10742 10738 10734 10731 10729 10726 10723 10720 10717 10713 10707 10701 10697 10692 10688 10685 10681 10678 10673 10669 10665 10660 10656 10652 10647 10644 10640 10635 10631 10626 10622 10617 10613 10609 10604 10600 10595 10591 10586 10582 10577 10573 10569 10565 10561 10557 10553 10548 10544 10540 10536 10532 10529 10526 10523 10519 10516 10513 10510 10507 10504 10501 10498 10496 10493 10490 10487 10484 10480 10477 10474
10780 10777 10775 10773 10772 10770 10769 10767 10764 10761 10758 10754 10751 10748 10745 10741 10737 10733 10729 10726 10724 10721 10718 10716 10713 10708 10702 10697 10692 10687 10683 10679 10676 10672 10668 10663 10659 10655 10650 10645 10642 10638 10634 10630 10625 10621 10617 10613 10608 10603 10599 10594 10590 10585 10581 10576 10572 10567 10563 10559 10555 10551 10546 10542 10538 10534 10530 10526 10523 10520 10516 10512 10509 10505 10502 10499 10496 10493 10490 10487 10484 10481 10478 10475 10471 10468
10779 10777 10775 10772 10770 10768 10767 10765 10763 10760 10756 10753 10749 10746 10743 10740 10737 10733 10728 10724 10721 10719 10716 10713 10711 10708 10702 10698 10693 10687 10683 10678 10674 10669 10665 10661 10657 10654 10649 10644 10639 10636 10633 10629 10625 10621 10616 10612 10608 10603 10598 10594 10589 10584 10580 10575 10571 10566 10562 10558 10554 10549 10544 10539 10535 10532 10528 10524 10520 10516 10513 10509 10505 10501 10497 10494 10490 10487 10484 10481 10478 10475 10472 10468 10465 10462
10778 10776 10774 10771 10768 10766 10764 10762 10760 10757 10754 10751 10748 10744 10742 10739 10735 10731 10727 10723 10719 10716 10714 10711 10709 10707 10702 10698 10694 10688 10683 10679 10674 10668 10663 10658 10654 10651 10648 10644 10638 10633 10630 10627 10624 10620 10616 10612 10607 10603 10598 10593 10588 10583 10578 10574 10570 10565 10560 10555 10551 10547 10542 10537 10532 10528 10525 10521 10517 10513 10509 10506 10501 10497 10493 10489 10485 10481 10478 10474 10471 10468 10465 10461 10458 10454
10778 10776 10774 10771 10767 10764 10762 10759 10756 10755 10753 10750 10747 10743 10740 10737 10734 10730 10726 10721 10717 10714 10711 10708 10704 10702 10699 10696 10692 10688 10683 10679 10675 10670 10664 10657 10652 10648 10646 10643 10638 10633 10629 10625 10622 10619 10615 10611 10607 10602 10598 10593 10587 10582 10576 10572 10568 10564 10559 10553 10548 10544 10540 10535 10530 10525 10522 10518 10514 10509 10505 10501 10497 10493 10488 10484 10480 10476 10472 10468 10464 10461 10457 10454 10451 10447
10776 10775 10774 10773 10770 10766 10764 10761 10757 10755 10753 10750 10746 10742 10738 10734 10732 10729 10725 10721 10716 10712 10708 10705 10701 10696 10693 10690 10688 10684 10681 10677 10673 10668 10663 10658 10652 10647 10645 10642 10638 10634 10630 10625 10621 10618 10613 10609 10605 10601 10597 10592 10587 10581 10575 10570 10566 10562 10558 10552 10547 10541 10537 10533 10527 10522 10518 10514 10511 10506 10502 10497 10493 10488 10484 10479 10475 10471 10467 10463 10459 10455 10451 10447 10443 10439
10773 10771 10769 10769 10768 10765 10762 10759 10755 10752 10751 10748 10744 10740 10736 10732 10728 10726 10723 10719 10715 10710 10706 10702 10699 10695 10689 10685 10683 10680 10677 10674 10670 10665 10660 10655 10651 10646 10643 10641 10638 10634 10630 10626 10621 10616 10611 10607 10603 10598 10594 10590 10585 10579 10574 10568 10563 10559 10555 10551 10546 10540 10535 10530 10525 10519 10514 10510 10507 10503 10499 10494 10489 10484 10479 10474 10469 10465 10461 10457 10453 10449 10444 10440 10435 10431
10770 10767 10764 10763 10763 10761 10758 10755 10752 10748 10747 10746 10742 10738 10734 10730 10726 10722 10719 10716 10712 10709 10705 10700 10696 10694 10689 10684 10681 10678 10674 10670 10667 10663 10658 10652 10647 10643 10640 10638 10636 10632 10628 10624 10619 10614 10609 10605 10600 10596 10591 10587 10582 10577 10571 10566 10560 10556 10551 10547 10543 10538 10533 10528 10522 10516 10511 10506 10502 10499 10495 10491 10485 10479 10474 10468 10463 10458 10454 10450 10446 10442 10437 10433 10428 10423
10769 10766 10762 10759 10758 10757 10754 10752 10749 10745 10744 10743 10740 10736 10732 10728 10723 10719 10716 10713 10709 10706 10702 10698 10693 10691 10687 10683 10679 10676 10672 10668 10663 10660 10656 10651 10645 10640 10636 10633 10631 10629 10625 10621 10617 10613 10608 10603 10598 10594 10589 10584 10578 10573 10568 10563 10557 10552 10548 10543 10539 10535 10531 10525 10519 10513 10508 10502 10498 10494 10490 10486 10482 10476 10470 10464 10458 10453 10448 10443 10439 10434 10430 10425 10420 10415
10767 10764 10760 10755 10753 10753 10751 10749 10746 10743 10740 10739 10736 10732 10729 10725 10721 10717 10714 10710 10706 10701 10698 10695 10691 10686 10683 10680 10676 10673 10670 10666 10661 10657 10653 10649 10644 10639 10635 10631 10628 10625 10622 10618 10613 10609 10605 10600 10596 10591 10586 10581 10575 10569 10564 10559 10554 10549 10544 10540 10535 10531 10526 10521 10516 10510 10504 10499 10494 10490 10485 10481 10476 10471 10466 10460 10453 10448 10443 10438 10433 10428 10423 10417 10412 10407
10765 10762 10759 10754 10750 10749 10747 10744 10742 10740 10738 10736 10732 10729 10726 10722 10719 10715 10711 10707 10703 10699 10695 10692 10689 10684 10679 10675 10672 10670 10667 10664 10660 10655 10650 10646 10643 10639 10635 10630 10625 10621 10618 10613 10609 10604 10600 10596 10592 10588 10583 10578 10573 10567 10561 10556 10551 10546 10541 10536 10532 10527 10523 10517 10512 10506 10501 10495 10490 10485 10481 10475 10470 10466 10461 10455 10449 10443 10438 10432 10427 10423 10417 10411 10405 10399
10763 10760 10758 10754 10749 10746 10744 10741 10738 10737 10736 10734 10730 10726 10723 10719 10715 10712 10709 10705 10701 10697 10692 10688 10685 10682 10677 10672 10667 10665 10664 10661 10657 10653 10648 10643 10640 10637 10634 10629 10624 10619 10615 10610 10604 10599 10595 10591 10587 10584 10579 10575 10570 10564 10558 10552 10547 10542 10537 10533 10528 10523 10519 10513 10508 10502 10496 10491 10486 10481 10476 10470 10464 10459 10455 10450 10444 10438 10432 10427 10422 10417 10412 10406 10399 10393
10760 10758 10756 10753 10748 10744 10742 10739 10736 10734 10734 10731 10727 10723 10720 10716 10712 10709 10706 10703 10699 10694 10689 10685 10681 10678 10675 10671 10665 10660 10658 10657 10654 10650 10647 10643 10638 10634 10630 10627 10623 10618 10612 10607 10601 10596 10590 10585 10581 10578 10575 10571 10566 10560 10554 10548 10542 10537 10533 10529 10524 10519 10514 10509 10503 10497 10491 10485 10481 10477 10472 10466 10459 10452 10448 10443 10438 10433 10427 10421 10416 10411 10406 10400 10393 10388
10757 10755 10753 10750 10747 10743 10740 10737 10734 10732 10731 10729 10725 10721 10718 10714 10710 10706 10703 10700 10696 10691 10686 10682 10677 10673 10670 10667 10663 10657 10653 10652 10650 10647 10644 10641 10637 10632 10627 10622 10619 10615 10610 10606 10600 10594 10588 10582 10577 10573 10569 10566 10562 10557 10550 10544 10538 10532 10528 10524 10520 10514 10509 10503 10496 10491 10486 10479 10475 10471 10466 10460 10454 10447 10441 10436 10431 10426 10420 10415 10410 10405 10399 10393 10386 10381
10753 10751 10749 10747 10745 10741 10738 10736 10734 10731 10729 10727 10724 10720 10717 10712 10708 10702 10697 10695 10693 10690 10685 10680 10675 10669 10665 10662 10659 10654 10649 10647 10645 10642 10639 10636 10633 10629 10624 10619 10614 10610 10607 10604 10599 10594 10588 10582 10576 10571 10566 10561 10558 10553 10547 10541 10534 10528 10523 10519 10515 10509 10504 10497 10491 10485 10479 10474 10468 10464 10459 10454 10448 10441 10434 10429 10424 10418 10412 10407 10402 10398 10392 10386 10379 10373
10749 10747 10746 10743 10741 10739 10736 10733 10731 10729 10726 10724 10720 10716 10712 10709 10705 10700 10694 10690 10689 10687 10682 10677 10672 10666 10662 10658 10655 10651 10645 10641 10640 10637 10634 10631 10627 10623 10619 10614 10610 10606 10602 10599 10595 10591 10586 10580 10575 10570 10565 10559 10555 10550 10543 10536 10530 10523 10517 10512 10508 10502 10497 10492 10486 10479 10473 10467 10461 10456 10452 10447 10442 10435 10428 10422 10416 10411 10405 10400 10394 10388 10384 10378 10372 10366
10745 10743 10742 10740 10737 10736 10733 10730 10728 10725 10723 10720 10716 10712 10709 10705 10702 10700 10694 10688 10685 10682 10677 10673 10668 10663 10658 10654 10651 10647 10641 10636 10634 10631 10627 10623 10619 10615 10611 10608 10604 10601 10597 10594 10589 10584 10579 10575 10570 10566 10561 10556 10550 10545 10539 10531 10524 10518 10511 10506 10501 10496 10491 10485 10480 10474 10467 10459 10453 10448 10444 10439 10435 10428 10421 10415 10409 10403 10397 10391 10386 10380 10375 10370 10364 10357
10740 10738 10737 10735 10733 10731 10729 10727 10726 10724 10721 10718 10714 10710 10707 10703 10699 10696 10692 10686 10682 10678 10674 10669 10665 10660 10654 10649 10645 10643 10639 10632 10627 10625 10622 10617 10613 10610 10607 10603 10600 10597 10594 10590 10585 10579 10573 10568 10563 10559 10555 10549 10543 10538 10533 10526 10519 10512 10506 10500 10495 10490 10484 10479 10473 10467 10460 10453 10446 10440 10435 10431 10426 10420 10414 10408 10402 10395 10389 10383 10377 10372 10366 10361 10355 10348
10735 10734 10732 10730 10728 10726 10724 10721 10721 10719 10718 10715 10711 10706 10702 10698 10694 10691 10687 10682 10678 10674 10670 10666 10661 10657 10653 10647 10641 10638 10636 10630 10623 10619 10617 10614 10610 10607 10604 10600 10595 10592 10588 10584 10580 10574 10567 10561 10555 10550 10546 10542 10537 10531 10526 10520 10513 10507 10501 10496 10490 10484 10479 10473 10466 10459 10453 10446 10439 10433 10427 10422 10417 10411 10406 10401 10395 10388 10381 10375 10369 10363 10357 10351 10346 10340
10730 10728 10726 10724 10723 10721 10718 10715 10714 10713 10711 10708 10705 10701 10697 10692 10689 10686 10682 10678 10674 10669 10665 10660 10657 10653 10648 10644 10638 10632 10629 10627 10622 10616 10611 10608 10604 10601 10599 10595 10590 10585 10581 10577 10572 10567 10560 10553 10547 10541 10537 10534 10530 10525 10519 10513 10507 10501 10496 10491 10485 10479 10472 10466 10459 10452 10446 10439 10433 10426 10419 10414 10409 10403 10398 10393 10387 10380 10373 10366 10360 10354 10347 10342 10336 10330
10724 10723 10721 10719 10718 10715 10711 10709 10710 10708 10704 10701 10698 10695 10691 10687 10683 10680 10676 10671 10667 10664 10659 10654 10650 10647 10642 10637 10633 10627 10621 10618 10615 10610 10606 10602 10598 10594 10590 10587 10583 10578 10574 10569 10564 10559 10552 10544 10538 10533 10528 10525 10521 10516 10511 10506 10500 10494 10489 10484 10478 10472 10465 10458 10451 10445 10438 10432 10426 10419 10412 10406 10400 10395 10389 10383 10377 10371 10363 10357 10351 10345 10338 10333 10327 10322
10719 10719 10717 10714 10713 10710 10704 10702 10706 10706 10701 10695 10691 10689 10685 10681 10678 10675 10670 10664 10661 10657 10653 10647 10643 10640 10636 10630 10625 10621 10615 10610 10606 10602 10599 10595 10591 10586 10582 10578 10574 10569 10565 10560 10555 10549 10543 10536 10529 10524 10520 10516 10513 10507 10502 10497 10491 10485 10480 10475 10469 10463 10457 10450 10444 10437 10429 10423 10417 10412 10406 10399 10392 10385 10379 10373 10368 10362 10354 10347 10341 10336 10329 10324 10319 10313
10711 10714 10714 10710 10708 10706 10699 10696 10701 10703 10698 10690 10686 10684 10680 10675 10671 10669 10664 10658 10654 10650 10646 10641 10635 10632 10630 10625 10619 10615 10610 10605 10600 10595 10591 10586 10582 10579 10574 10570 10566 10561 10555 10551 10546 10541 10536 10529 10522 10516 10510 10506 10502 10498 10492 10487 10482 10476 10471 10466 10460 10454 10449 10443 10436 10428 10421 10415 10408 10402 10397 10391 10384 10377 10371 10364 10358 10353 10346 10338 10333 10327 10321 10316 10311 10305
10702 10705 10708 10706 10703 10701 10694 10690 10695 10697 10693 10685 10680 10677 10674 10669 10665 10662 10658 10651 10647 10643 10640 10635 10629 10625 10623 10621 10615 10610 10605 10600 10595 10590 10585 10579 10574 10570 10566 10560 10556 10552 10548 10543 10539 10534 10528 10522 10515 10508 10502 10497 10493 10488 10481 10477 10473 10467 10462 10457 10452 10447 10441 10434 10427 10421 10414 10407 10400 10393 10387 10381 10375 10368 10362 10355 10349 10344 10338 10331 10325 10319 10313 10308 10303 10297
10697 10696 10698 10699 10698 10695 10688 10684 10687 10690 10684 10678 10673 10668 10665 10661 10658 10656 10653 10647 10642 10638 10634 10631 10626 10620 10616 10614 10610 10605 10600 10595 10591 10585 10580 10574 10568 10563 10558 10552 10547 10543 10540 10535 10531 10525 10519 10513 10507 10500 10493 10487 10483 10478 10471 10466 10463 10459 10454 10449 10443 10438 10432 10425 10418 10412 10405 10397 10390 10384 10378 10371 10365 10358 10352 10346 10341 10336 10330 10323 10317 10312 10306 10300 10295 10288
10692 10691 10690 10691 10690 10688 10682 10677 10679 10680 10674 10668 10665 10661 10656 10651 10647 10645 10643 10639 10635 10632 10628 10625 10621 10616 10611 10607 10604 10599 10593 10589 10585 10580 10574 10568 10563 10558 10553 10547 10540 10535 10532 10528 10524 10518 10511 10504 10497 10491 10485 10479 10473 10468 10461 10455 10451 10449 10446 10440 10434 10428 10421 10414 10408 10401 10394 10387 10381 10374 10369 10363 10356 10348 10341 10336 10331 10327 10321 10315 10309 10304 10298 10292 10286 10279
10681 10684 10685 10685 10683 10680 10677 10673 10673 10672 10665 10658 10656 10653 10648 10644 10638 10634 10631 10630 10627 10624 10621 10617 10614 10610 10606 10601 10598 10594 10588 10582 10579 10575 10568 10561 10556 10552 10547 10542 10536 10529 10524 10520 10516 10511 10504 10497 10490 10483 10476 10470 10465 10459 10452 10445 10440 10438 10435 10429 10422 10416 10410 10403 10398 10392 10385 10377 10371 10365 10359 10353 10346 10339 10332 10327 10322 10317 10312 10306 10301 10296 10290 10283 10277 10271
10668 10673 10677 10681 10678 10673 10671 10670 10669 10667 10658 10648 10645 10646 10642 10637 10632 10626 10622 10620 10618 10615 10613 10609 10604 10601 10598 10594 10590 10588 10582 10576 10571 10567 10562 10554 10549 10545 10540 10534 10529 10523 10517 10512 10508 10503 10497 10490 10482 10475 10468 10462 10457 10451 10443 10436 10430 10426 10422 10417 10410 10405 10401 10394 10388 10382 10375 10368 10361 10354 10348 10342 10336 10330 10324 10319 10313 10308 10303 10296 10292 10287 10280 10273 10268 10262
10654 10660 10666 10674 10674 10667 10664 10663 10664 10663 10652 10638 10633 10635 10632 10628 10624 10618 10612 10609 10607 10606 10604 10600 10595 10591 10589 10585 10582 10579 10575 10569 10563 10559 10553 10547 10541 10536 10532 10526 10521 10515 10509 10504 10499 10493 10487 10480 10472 10466 10459 10453 10447 10442 10435 10427 10420 10414 10410 10405 10400 10396 10392 10386 10380 10373 10365 10357 10351 10344 10337 10331 10325 10320 10316 10310 10304 10298 10292 10286 10280 10275 10269 10262 10257 10252
10638 10645 10653 10664 10668 10662 10655 10655 10658 10658 10648 10633 10625 10624 10622 10617 10614 10610 10603 10599 10597 10595 10593 10591 10586 10580 10578 10575 10572 10570 10567 10562 10556 10551 10545 10539 10533 10528 10523 10518 10513 10507 10501 10496 10491 10484 10476 10469 10463 10456 10450 10444 10439 10433 10425 10417 10409 10403 10399 10396 10392 10387 10383 10377 10371 10364 10355 10347 10340 10333 10327 10321 10316 10311 10306 10300 10294 10288 10281 10275 10269 10264 10258 10251 10245 10240
10622 10630 10639 10652 10660 10656 10647 10645 10649 10649 10641 10630 10621 10616 10613 10609 10607 10604 10598 10593 10591 10588 10585 10583 10580 10575 10571 10567 10562 10560 10559 10555 10549 10544 10539 10533 10525 10520 10515 10510 10505 10500 10494 10487 10481 10475 10468 10460 10454 10448 10442 10436 10430 10423 10415 10406 10399 10395 10392 10388 10383 10378 10372 10366 10361 10355 10347 10339 10331 10324 10318 10313 10307 10300 10294 10288 10282 10276 10270 10263 10257 10252 10247 10241 10234 10229